Flag for Sweden Weather past 2 weeks in Gothenburg, Sweden

Now
54 °F

Passing clouds.


Feels Like: 49 °F
Forecast: 46 / 56 °F
Wind: 14 mph from West

Location: Gothenburg / Save

Current Time: May 23, 2015 at 2:56:10 PM

Latest Report: May 23, 2015 at 2:20 PM


Visibility: N/A

Pressure: 30.01 "Hg

Humidity: 77%

Dew point: 46 °F

Location of GothenburgLocation

Historic Weather in Gothenburg — Graph

°F

Gothenburg temperature yesterday

Maximum temperature yesterday: 54 °F (at 12:50 PM)
Minimum temperature yesterday: 48 °F (at 12:20 AM)
Average temperature yesterday: 51 °F

Past Weeks' High & Low Weather Summary

 TemperatureHumidityPressure
High61 °F (May 11, 3:50 PM)100% (May 9, 10:20 PM)30.24 "Hg (May 9, 10:20 PM)
Low34 °F (May 9, 5:20 AM)33% (May 15, 5:20 PM)29.45 "Hg (May 19, 4:50 AM)
Average49 °F75%29.88 "Hg
* Reported May 8 1:20 PM — May 23 1:50 PM, Gothenburg, Weather by CustomWeather, © 2015

Note: Actual official high and low records may vary slightly from our data, if they occured in-between our weather recording intervals... More about our weather records

Advertising

Gothenburg weather history for previous 24 hours

 ConditionsComfort  
Time TempWeatherWind HumidityBarometerVisibility
1:50 PM
Sat, May 23
55 °FPassing clouds.16 mph67%30.01 "HgN/A
1:20 PM54 °FPassing clouds.15 mph72%30.01 "HgN/A
12:50 PM54 °FPassing clouds.15 mph72%30.01 "HgN/A
12:20 PM54 °FScattered clouds.18 mph72%30.01 "HgN/A
11:50 AM54 °FScattered clouds.18 mph72%30.01 "HgN/A
11:20 AM54 °FScattered clouds.20 mph72%30.01 "HgN/A
10:50 AM52 °FScattered clouds.22 mph77%30.01 "HgN/A
10:20 AM52 °FScattered clouds.21 mph72%29.98 "HgN/A
9:50 AM52 °FPassing clouds.20 mph72%29.98 "HgN/A
9:20 AM52 °FPassing clouds.21 mph72%29.98 "HgN/A
8:50 AM50 °FPassing clouds.21 mph76%29.98 "HgN/A
8:20 AM50 °FPassing clouds.17 mph71%29.98 "HgN/A
7:50 AM50 °FPassing clouds.21 mph71%29.98 "HgN/A
7:20 AM50 °FSunny.17 mph71%29.95 "Hg10 mi
6:50 AM48 °FPassing clouds.14 mph82%29.95 "HgN/A
6:20 AM48 °FPassing clouds.18 mph76%29.95 "HgN/A
5:20 AM48 °FPassing clouds.17 mph71%29.95 "HgN/A
4:50 AM48 °FPassing clouds.17 mph76%29.95 "HgN/A
4:20 AM48 °FPassing clouds.16 mph76%29.95 "HgN/A
3:20 AM48 °FPassing clouds.18 mph76%29.95 "HgN/A
2:50 AM48 °FPassing clouds.17 mph71%29.95 "HgN/A
2:20 AM48 °FClear.14 mph76%29.95 "HgN/A
1:50 AM48 °FPassing clouds.14 mph76%29.95 "HgN/A
12:50 AM48 °FPassing clouds.17 mph82%29.95 "HgN/A
12:20 AM48 °FMostly cloudy.15 mph87%29.95 "HgN/A
11:50 PM
Fri, May 22
48 °FPassing clouds.16 mph82%29.95 "HgN/A
11:20 PM48 °FClear.16 mph87%29.95 "Hg10 mi
10:50 PM48 °FLight rain. Partly cloudy.14 mph94%29.92 "Hg4 mi
10:20 PM50 °FDrizzle. Broken clouds.20 mph88%29.92 "HgN/A
9:50 PM52 °FDrizzle. Cloudy.20 mph94%29.92 "Hg2 mi
9:20 PM54 °FLight rain. Broken clouds.21 mph88%29.89 "Hg1 mi
8:50 PM54 °FOvercast.16 mph88%29.89 "HgN/A
8:20 PM54 °FOvercast.15 mph88%29.92 "HgN/A
7:50 PM54 °FLow clouds.16 mph88%29.92 "HgN/A
7:20 PM54 °FOvercast.15 mph88%29.95 "HgN/A
6:50 PM54 °FFog.14 mph88%29.95 "Hg4 mi
6:20 PM52 °FDrizzle. More clouds than sun.16 mph94%29.95 "Hg2 mi
5:50 PM52 °FDrizzle. Mostly cloudy.17 mph94%29.98 "Hg2 mi
5:20 PM52 °FLight rain. Broken clouds.20 mph88%29.98 "Hg2 mi
4:50 PM52 °FOvercast.22 mph82%30.01 "HgN/A
4:20 PM52 °FOvercast.23 mph82%30.01 "HgN/A
3:20 PM52 °FOvercast.17 mph82%30.04 "HgN/A
2:50 PM52 °FLight rain. Overcast.20 mph82%30.07 "HgN/A
2:20 PM52 °FMore clouds than sun.17 mph82%30.07 "HgN/A
Weather by CustomWeather, © 2015

See weather overviewHow to use our weather pages